WC1H Weather Reports


Display with metric or nautical units.
time (UTC)temp
F
wind
direction
speed
MPH
gust
MPH
rain 1hr
in
rain 24hr
in
rain mn
in
humidity
%
barometer
mb
20191022091846 49 342 0.0 3.0 0.00 0.01 0.01 96 1019.2
20191022090845 49 16 0.0 1.0 0.00 0.01 0.01 96 1019.5
20191022085847 49 37 0.0 2.0 0.00 0.01 0.01 96 1019.6
20191022084845 48 349 0.0 2.0 0.00 0.01 0.01 96 1019.5
20191022083847 48 14 0.0 2.0 0.00 0.01 0.01 96 1019.3
20191022082847 48 332 0.0 2.0 0.00 0.01 0.01 96 1019.2
20191022081848 47 15 0.0 2.0 0.00 0.01 0.01 96 1019.0
20191022080847 47 3 0.0 2.0 0.00 0.01 0.01 96 1019.1
20191022075846 47 352 0.0 6.0 0.00 0.01 0.01 96 1019.0
20191022074846 47 8 0.0 1.0 0.00 0.01 0.01 96 1019.4
20191022073847 47 58 0.0 2.0 0.00 0.01 0.01 96 1019.4
20191022072843 47 15 0.0 1.0 0.01 0.01 0.01 96 1019.7
20191022071841 47 330 0.0 3.0 0.01 0.01 0.01 96 1020.0
20191022070842 47 359 0.0 2.0 0.01 0.01 0.01 96 1019.9
20191022065841 47 356 0.0 1.0 0.01 0.01 0.01 96 1020.0
20191022064841 47 1 0.0 3.0 0.01 0.01 0.01 96 1019.8
20191022063839 47 56 0.0 0.0 0.01 0.01 0.01 96 1019.8
20191022062838 47 356 0.0 0.0 0.00 0.00 0.00 96 1020.0
20191022061837 47 342 0.0 0.0 0.00 0.00 0.00 96 1019.7
20191022060837 47 342 0.0 0.0 0.00 0.00 0.00 96 1019.9
20191022055838 47 358 0.0 0.0 0.00 0.00 0.00 95 1020.0
20191022054836 47 352 0.0 3.0 0.00 0.00 0.00 96 1020.1
20191022053837 47 337 0.0 0.0 0.00 0.00 0.00 96 1020.2
20191022052835 47 339 0.0 2.0 0.00 0.00 0.00 96 1020.2
20191022051836 47 345 0.0 0.0 0.00 0.00 0.00 96 1020.1
20191022050835 47 313 0.0 0.0 0.00 0.00 0.00 95 1019.7
20191022045835 47 139 0.0 0.0 0.00 0.00 0.00 95 1019.7
20191022044835 47 139 0.0 0.0 0.00 0.00 0.00 95 1019.7
20191022043836 47 139 0.0 0.0 0.00 0.00 0.00 95 1019.5
20191022042836 47 139 0.0 0.0 0.00 0.00 0.00 95 1019.5
20191022041834 47 139 0.0 0.0 0.00 0.00 0.00 95 1019.6
20191022040833 47 139 0.0 0.0 0.00 0.00 0.00 95 1020.0
20191022035834 47 139 0.0 0.0 0.00 0.00 0.00 95 1020.0
20191022034834 47 139 0.0 0.0 0.00 0.00 0.00 95 1020.1
20191022033835 47 141 0.0 0.0 0.00 0.00 0.00 95 1020.2
20191022032834 47 141 0.0 0.0 0.00 0.00 0.00 95 1020.4
20191022031831 47 141 0.0 0.0 0.00 0.00 0.00 94 1020.3
20191022030832 47 141 0.0 0.0 0.00 0.00 0.00 94 1020.1
20191022025832 48 141 0.0 0.0 0.00 0.00 0.00 94 1020.1
20191022024831 48 141 0.0 0.0 0.00 0.00 0.00 94 1020.4
20191022023831 48 141 0.0 0.0 0.00 0.00 0.00 94 1020.6
20191022022830 48 141 0.0 0.0 0.00 0.00 0.00 94 1020.6
20191022021829 48 141 0.0 0.0 0.00 0.00 0.00 93 1020.4
20191022020827 48 141 0.0 0.0 0.00 0.00 0.00 93 1020.4
20191022015828 48 141 0.0 0.0 0.00 0.00 0.00 93 1020.5
20191022014828 48 141 0.0 0.0 0.00 0.00 0.00 92 1020.5
20191022013827 49 141 0.0 0.0 0.00 0.00 0.00 92 1020.7
20191022012827 49 141 0.0 0.0 0.00 0.00 0.00 92 1020.7
20191022011828 49 141 0.0 0.0 0.00 0.00 0.00 92 1020.4
20191022010828 49 141 0.0 0.0 0.00 0.00 0.00 92 1020.0
20191022005826 49 141 0.0 0.0 0.00 0.00 0.00 92 1019.9
20191022004825 49 141 0.0 0.0 0.00 0.00 0.00 91 1019.7
20191022003826 49 141 0.0 0.0 0.00 0.00 0.00 91 1019.8
20191022002826 49 141 0.0 0.0 0.00 0.00 0.00 91 1019.7
20191022001825 50 141 0.0 0.0 0.00 0.00 0.00 91 1019.7
20191022000824 50 141 0.0 0.0 0.00 0.00 0.00 90 1019.5
20191021235824 50 141 0.0 0.0 0.00 0.00 0.00 90 1019.6
20191021234823 50 141 0.0 0.0 0.00 0.00 0.00 90 1019.6
20191021233823 51 141 0.0 0.0 0.00 0.00 0.00 89 1019.9
20191021232822 51 141 0.0 0.0 0.00 0.00 0.00 88 1019.9
20191021231822 51 141 0.0 0.0 0.00 0.00 0.00 88 1019.8
20191021230820 52 141 0.0 0.0 0.00 0.00 0.00 87 1019.5
20191021225821 52 141 0.0 0.0 0.00 0.00 0.00 87 1019.5
20191021224821 52 141 0.0 0.0 0.00 0.00 0.00 87 1019.5
20191021223820 53 141 0.0 0.0 0.00 0.00 0.00 85 1019.5
20191021222821 53 141 0.0 0.0 0.00 0.00 0.00 85 1019.4
20191021221820 53 143 0.0 0.0 0.00 0.00 0.00 85 1019.2
20191021220821 54 143 0.0 0.0 0.00 0.00 0.00 84 1019.2
20191021215821 54 143 0.0 0.0 0.00 0.00 0.00 83 1019.2
20191021214819 55 143 0.0 0.0 0.00 0.00 0.00 82 1019.1
20191021213820 55 143 0.0 0.0 0.00 0.00 0.00 81 1018.9
20191021212816 56 146 0.0 0.0 0.00 0.00 0.00 79 1018.7
20191021211818 56 146 0.0 0.0 0.00 0.00 0.00 76 1018.6
20191021210816 57 147 0.0 0.0 0.00 0.00 0.00 74 1018.6
20191021205816 57 56 0.0 2.0 0.00 0.00 0.00 74 1018.3
20191021204814 57 81 0.0 3.0 0.00 0.00 0.00 74 1018.3
20191021203812 58 136 0.0 0.0 0.00 0.00 0.00 73 1018.3
20191021202810 58 18 1.0 5.0 0.00 0.00 0.00 72 1018.1
20191021201810 59 351 0.0 4.0 0.00 0.00 0.00 72 1018.1
20191021200810 59 58 0.0 5.0 0.00 0.00 0.00 70 1018.2
20191021195809 59 62 0.0 2.0 0.00 0.00 0.00 69 1018.0
20191021194809 60 54 0.0 4.0 0.00 0.00 0.00 70 1017.9
20191021193808 60 359 0.0 4.0 0.00 0.00 0.00 68 1017.8
20191021192809 60 49 1.0 7.0 0.00 0.00 0.00 67 1017.5
20191021191809 60 356 1.0 6.0 0.00 0.00 0.00 69 1017.7
20191021190810 60 113 1.0 5.0 0.00 0.00 0.00 68 1017.7
20191021185806 60 110 1.0 8.0 0.00 0.00 0.00 68 1017.7
20191021184806 61 67 0.0 3.0 0.00 0.00 0.00 69 1017.8
20191021183807 61 115 2.0 10.0 0.00 0.00 0.00 68 1018.0
20191021182806 61 32 1.0 7.0 0.00 0.00 0.00 70 1017.9
20191021181806 61 100 1.0 5.0 0.00 0.00 0.00 69 1018.1
20191021180806 62 103 1.0 6.0 0.00 0.00 0.00 67 1017.9
20191021175804 62 115 1.0 8.0 0.00 0.00 0.00 60 1017.9
20191021174805 62 52 1.0 6.0 0.00 0.00 0.00 62 1018.0
20191021173802 62 342 1.0 8.0 0.00 0.00 0.00 60 1018.0
20191021172801 62 56 2.0 8.0 0.00 0.00 0.00 61 1018.0
20191021171801 62 110 1.0 6.0 0.00 0.00 0.00 61 1018.0
20191021170758 62 51 3.0 7.0 0.00 0.00 0.00 65 1018.2
20191021165759 62 326 2.0 9.0 0.00 0.00 0.00 65 1018.1
20191021164757 61 349 3.0 13.0 0.00 0.00 0.00 65 1018.2
20191021163755 61 3 3.0 10.0 0.00 0.00 0.00 65 1018.1
20191021162754 61 349 4.0 12.0 0.00 0.00 0.00 65 1018.2
20191021161755 61 304 4.0 12.0 0.00 0.00 0.00 67 1018.2
20191021160754 62 330 2.0 9.0 0.00 0.00 0.00 67 1018.2
20191021155756 61 37 2.0 8.0 0.00 0.00 0.00 68 1018.2
20191021154754 60 13 3.0 9.0 0.00 0.00 0.00 68 1018.3
20191021153754 61 25 2.0 7.0 0.00 0.00 0.00 68 1018.0
20191021152755 61 56 2.0 8.0 0.00 0.00 0.00 68 1017.9
20191021151754 61 332 2.0 8.0 0.00 0.00 0.00 70 1017.7
20191021150754 60 61 3.0 11.0 0.00 0.00 0.00 68 1017.7
20191021145755 60 15 3.0 8.0 0.00 0.00 0.00 70 1017.5
20191021144754 59 6 3.0 11.0 0.00 0.00 0.00 72 1017.3
20191021143754 59 70 3.0 10.0 0.00 0.00 0.00 72 1017.3
20191021142752 58 19 3.0 11.0 0.00 0.00 0.00 74 1017.3
20191021141752 58 15 3.0 9.0 0.00 0.00 0.00 75 1017.5
20191021140753 57 12 2.0 10.0 0.00 0.00 0.00 79 1017.6
20191021135752 57 294 2.0 6.0 0.00 0.00 0.00 82 1017.7
20191021134752 56 341 2.0 7.0 0.00 0.00 0.00 85 1017.5
20191021133752 56 353 2.0 9.0 0.00 0.00 0.00 85 1017.5
20191021132751 55 321 2.0 7.0 0.00 0.00 0.00 87 1017.6
20191021131751 54 335 2.0 6.0 0.00 0.00 0.00 90 1017.8
20191021130749 54 323 1.0 7.0 0.00 0.00 0.00 91 1017.7
20191021125749 53 316 1.0 5.0 0.00 0.00 0.00 91 1017.9
20191021124751 53 344 2.0 6.0 0.00 0.00 0.00 90 1017.9
20191021123749 54 347 1.0 6.0 0.00 0.00 0.00 91 1018.1
20191021122745 53 329 1.0 6.0 0.00 0.00 0.00 92 1018.0
20191021121746 53 63 1.0 7.0 0.00 0.00 0.00 93 1018.0
20191021120743 52 327 1.0 6.0 0.00 0.00 0.00 94 1017.9
20191021115745 52 343 1.0 7.0 0.00 0.00 0.00 94 1017.9
20191021114744 51 336 1.0 3.0 0.00 0.00 0.00 94 1017.8
20191021113741 51 338 0.0 3.0 0.00 0.00 0.00 93 1017.8
20191021112742 51 324 0.0 5.0 0.00 0.00 0.00 93 1017.7
20191021111743 51 297 1.0 4.0 0.00 0.00 0.00 93 1017.6
20191021110742 51 46 1.0 3.0 0.00 0.00 0.00 93 1017.4
20191021105743 52 326 0.0 3.0 0.00 0.00 0.00 92 1017.3
20191021104743 52 32 1.0 6.0 0.00 0.00 0.00 92 1017.1
20191021103743 52 37 1.0 4.0 0.00 0.00 0.00 92 1017.2
20191021102739 52 41 1.0 5.0 0.00 0.00 0.00 91 1017.0
20191021101739 52 328 1.0 6.0 0.00 0.00 0.00 91 1016.8
20191021100739 52 40 1.0 4.0 0.00 0.00 0.00 91 1016.7
20191021095739 52 321 1.0 5.0 0.00 0.00 0.00 91 1016.7
20191021094738 52 340 0.0 4.0 0.00 0.00 0.00 91 1016.7
20191021093737 52 0 0.0 3.0 0.00 0.00 0.00 91 1016.5
20191021092738 52 331 0.0 3.0 0.00 0.00 0.00 91 1016.6